Date,TemperatureHighF,TemperatureAvgF,TemperatureLowF,DewpointHighF,DewpointAvgF,DewpointLowF,HumidityHigh,HumidityAvg,HumidityLow,PressureMaxIn,PressureMinIn,WindSpeedMaxMPH,WindSpeedAvgMPH,GustSpeedMaxMPH,PrecipitationSumIn
2013-1-1,32.1,23.2,5.3,27.0,13.7,0.0,84,67,55,29.98,29.73,15,3,21,0.00
2013-1-2,20.9,9.8,-1.0,18.1,4.5,-7.0,92,78,65,30.24,29.95,9,1,14,0.00
2013-1-3,15.8,3.8,-10.0,12.3,-2.9,-14.0,86,74,50,30.26,29.98,5,0,7,0.00
2013-1-4,32.6,28.7,15.3,22.8,20.9,11.6,89,73,62,29.98,29.84,20,4,23,0.00
2013-1-5,34.1,28.9,20.3,25.0,19.9,14.8,82,70,52,30.24,29.87,14,2,21,0.04
2013-1-6,35.7,30.6,20.5,29.6,24.7,15.6,92,79,65,30.19,29.91,10,1,15,0.03
2013-1-7,33.9,24.9,13.3,30.0,19.3,10.6,92,79,67,30.39,29.97,7,1,12,0.00
2013-1-8,39.0,26.0,13.7,24.0,19.2,10.5,91,77,51,30.39,30.27,6,1,9,0.07
2013-1-9,44.6,32.8,19.1,33.4,24.4,16.6,91,73,51,30.38,29.97,20,2,22,0.21
2013-1-10,40.4,34.9,26.2,31.5,24.3,21.6,85,66,51,30.56,30.09,12,2,28,0.02
2013-1-11,42.3,32.6,22.9,38.3,25.5,19.4,89,77,42,30.55,30.11,19,2,23,0.08
2013-1-12,48.1,40.7,35.7,42.5,37.7,34.1,100,89,81,30.16,30.06,12,1,18,0.00
2013-1-13,59.0,44.2,34.8,51.0,41.3,33.5,96,90,74,30.13,29.89,13,1,19,0.00
2013-1-14,56.4,41.9,30.9,52.5,35.6,23.1,96,79,56,30.29,29.79,12,2,18,0.06
2013-1-15,33.2,29.5,25.9,25.3,22.5,20.9,88,75,63,30.35,30.22,3,0,7,0.00
2013-1-16,31.5,28.7,26.4,29.6,25.7,20.4,100,89,71,30.22,29.82,6,0,11,0.00
2013-1-17,34.8,28.0,17.0,28.4,19.3,-2.0,93,70,42,30.15,29.83,9,2,18,0.01
2013-1-18,21.9,14.7,6.2,7.3,1.2,-5.0,71,54,41,30.41,30.11,11,2,15,0.00
2013-1-19,45.0,35.9,21.8,25.9,18.1,7.0,62,48,42,30.26,29.77,16,3,23,0.14
2013-1-20,46.5,35.7,19.1,32.3,19.9,4.9,86,53,40,29.99,29.50,28,6,35,0.02
2013-1-21,22.8,19.1,15.9,15.1,8.2,1.7,84,62,51,30.07,29.78,11,2,16,0.00
2013-1-22,20.2,12.2,6.5,15.6,3.8,-6.0,88,69,51,30.10,29.77,13,2,19,0.00
2013-1-23,9.5,3.5,-2.0,-3.0,-9.1,-12.0,67,54,39,30.18,30.09,13,3,21,0.00
2013-1-24,15.1,3.9,-8.0,-2.0,-8.2,-13.0,80,57,39,30.37,30.17,12,2,18,0.00
2013-1-25,14.2,6.5,-2.0,5.6,-4.3,-9.0,83,61,43,30.42,30.10,6,0,9,0.00
2013-1-26,16.7,9.4,1.8,5.3,1.3,-1.0,85,70,49,30.33,30.07,6,1,13,0.00
2013-1-27,23.3,12.5,5.3,6.9,2.5,0.3,81,65,40,30.52,30.32,10,1,13,0.00
2013-1-28,27.9,19.6,8.6,24.7,15.1,2.9,92,83,72,30.49,29.98,16,2,20,0.00
2013-1-29,42.9,31.9,24.0,39.0,29.3,22.0,93,91,82,30.15,29.99,14,1,24,0.27
2013-1-30,62.6,55.1,41.7,55.4,50.0,38.7,92,83,73,30.00,29.28,20,5,33,0.19
2013-1-31,56.6,38.4,23.9,53.7,29.7,11.7,95,71,53,29.60,28.85,25,8,43,1.10
2013-2-1,23.8,20.9,15.3,14.4,9.2,4.2,75,61,49,30.12,29.60,18,4,25,0.00
2013-2-2,23.7,16.6,8.1,14.9,7.2,1.8,85,67,51,30.23,30.03,8,1,13,0.00
2013-2-3,27.2,18.3,9.6,13.5,10.3,6.0,92,72,49,30.05,29.76,5,0,13,0.00
2013-2-4,22.8,18.7,14.4,15.8,8.7,2.9,89,66,48,29.94,29.75,16,3,26,0.00
2013-2-5,26.5,17.8,6.8,14.5,8.7,3.6,87,68,49,30.03,29.89,6,0,9,0.00
2013-2-6,31.4,24.6,16.0,21.8,13.0,0.3,87,63,32,30.35,29.89,14,3,17,0.00
2013-2-7,24.7,18.0,8.9,8.3,3.5,0.0,70,53,41,30.55,30.34,7,1,9,0.00
2013-2-8,28.3,24.7,19.8,20.1,15.2,6.3,88,68,45,30.39,29.80,22,6,36,0.00
2013-2-9,20.2,13.9,7.6,18.9,5.2,-4.0,98,69,46,30.36,29.82,14,2,24,0.00
2013-2-10,28.9,12.8,-2.0,11.9,2.2,-6.0,83,63,39,30.52,30.29,5,0,7,0.08
2013-2-11,48.4,36.7,13.5,40.8,27.0,1.1,93,72,22,30.30,29.62,23,4,34,0.43
2013-2-12,35.2,33.4,30.1,29.2,26.8,23.5,81,77,73,29.90,29.65,18,5,24,0.00
2013-2-13,35.9,30.3,26.7,25.2,22.8,19.2,84,74,55,29.88,29.73,7,1,13,0.00
2013-2-14,37.9,29.4,19.7,25.0,21.4,16.7,92,73,53,29.97,29.72,5,1,9,0.00
2013-2-15,43.9,37.6,28.9,30.5,26.5,22.5,90,65,50,29.98,29.87,10,2,20,0.01
2013-2-16,30.9,27.1,20.8,26.7,18.6,4.9,92,71,49,30.00,29.84,6,1,11,0.01
2013-2-17,21.3,15.7,9.2,7.2,3.3,-1.0,71,58,46,29.90,29.64,19,3,19,0.00
2013-2-18,27.0,14.6,5.6,10.5,1.5,-2.0,73,56,34,30.20,29.90,12,2,17,0.00
2013-2-19,44.8,30.0,14.0,33.3,21.4,6.0,94,72,44,30.17,29.59,16,2,30,0.34
2013-2-20,31.9,24.7,21.8,30.3,17.6,12.9,94,75,57,29.84,29.61,18,5,27,0.01
2013-2-21,23.7,20.2,16.1,15.0,10.9,6.7,79,67,56,30.39,29.84,18,3,20,0.00
2013-2-22,37.4,27.9,17.5,25.0,19.8,14.3,94,73,58,30.43,30.23,8,1,15,0.02
2013-2-23,36.9,34.6,32.0,30.7,27.6,21.5,86,76,61,30.24,29.87,12,3,18,0.02
2013-2-24,35.2,32.4,30.0,33.1,30.5,28.2,94,93,80,29.95,29.76,5,0,9,0.08
2013-2-25,35.7,31.1,28.3,30.8,28.0,25.4,94,89,79,30.24,29.95,4,0,7,0.10
2013-2-26,42.0,33.6,25.0,31.2,26.4,23.0,92,76,59,30.32,30.03,12,2,25,0.00
2013-2-27,38.8,35.7,31.5,35.0,29.9,23.8,92,80,65,30.04,29.57,28,5,33,0.23
2013-2-28,41.4,35.5,31.4,34.7,30.7,27.2,96,83,72,29.60,29.54,6,0,11,0.01
2013-3-1,37.2,33.3,29.9,32.7,27.9,24.4,96,81,65,29.76,29.58,8,1,14,0.00
2013-3-2,32.9,28.9,25.4,27.8,24.8,21.4,89,85,77,29.75,29.70,9,1,12,0.03
2013-3-3,28.1,24.9,21.1,24.1,21.1,18.1,89,85,80,29.75,29.68,7,1,12,0.00
2013-3-4,31.9,26.2,22.5,23.4,19.1,16.8,84,75,62,29.90,29.71,9,2,20,0.00
2013-3-5,40.3,29.4,25.1,27.8,22.4,18.0,88,75,60,30.09,29.89,7,1,11,0.06
2013-3-6,35.8,33.4,26.8,31.0,26.7,22.8,92,77,66,30.13,30.02,12,2,24,0.04
2013-3-7,35.5,30.8,27.1,28.6,25.1,21.2,92,80,65,30.15,30.09,7,1,16,0.01
2013-3-8,37.8,29.3,24.9,30.6,25.3,21.3,93,85,69,30.29,30.08,4,0,10,0.02
2013-3-9,50.1,32.2,17.3,28.2,22.9,15.1,92,72,40,30.35,30.26,7,0,10,0.36
2013-3-10,55.9,41.1,22.7,28.3,23.1,19.4,91,55,27,30.36,30.17,14,1,19,0.01
2013-3-11,52.6,45.9,35.3,35.8,28.3,22.5,76,52,32,30.20,29.97,25,3,32,0.00
2013-3-12,52.6,48.5,36.4,49.1,43.8,34.8,94,84,67,30.00,29.64,28,6,33,1.00
2013-3-13,43.2,36.3,31.8,34.7,26.4,18.4,94,70,43,29.83,29.75,12,2,18,0.01
2013-3-14,31.5,23.8,20.1,23.4,13.1,6.4,77,64,51,29.90,29.79,15,4,22,0.00
2013-3-15,32.2,25.3,15.6,28.2,15.4,5.8,90,67,43,29.93,29.63,15,2,21,0.00
2013-3-16,31.3,25.8,18.6,21.8,14.1,10.7,81,62,45,29.90,29.74,9,1,16,0.01
2013-3-17,32.3,24.3,16.3,16.0,9.4,3.4,80,55,33,30.33,29.90,14,2,19,0.00
2013-3-18,37.8,24.6,9.4,22.8,6.8,2.5,87,51,25,30.46,30.09,7,1,17,0.00
2013-3-19,34.6,30.1,25.7,28.4,24.9,22.0,92,81,68,30.09,29.68,21,4,35,0.06
2013-3-20,32.7,26.4,22.6,22.0,18.7,16.8,82,73,58,29.80,29.74,13,3,20,0.04
2013-3-21,34.4,26.1,14.3,22.5,15.9,10.3,89,67,43,29.80,29.64,10,1,15,0.04
2013-3-22,31.8,24.1,14.3,26.1,18.0,10.6,90,78,66,29.80,29.68,14,2,17,0.05
2013-3-23,37.3,31.0,25.8,21.6,19.9,17.7,80,64,48,29.85,29.72,17,3,22,0.00
2013-3-24,39.1,33.0,29.0,24.4,22.2,20.7,74,65,52,29.89,29.77,11,1,13,0.00
2013-3-25,40.8,35.0,27.8,26.7,23.8,20.9,76,64,51,29.79,29.53,11,1,14,0.00
2013-3-26,44.6,34.3,27.5,29.1,24.7,20.6,91,69,42,29.84,29.59,9,1,14,0.02
2013-3-27,48.3,35.0,23.5,34.8,26.2,19.9,88,71,45,29.92,29.81,10,1,18,0.02
2013-3-28,46.2,38.0,32.5,34.9,31.4,27.7,92,78,60,30.08,29.91,6,1,11,0.02
2013-3-29,48.0,37.9,30.7,34.8,32.0,28.6,93,80,56,30.11,30.02,9,0,11,0.00
2013-3-30,53.6,39.7,27.7,31.9,24.9,18.5,93,61,27,30.13,30.02,11,1,15,0.01
2013-3-31,55.2,40.2,26.0,37.1,26.7,20.7,90,63,31,30.11,29.69,15,2,27,0.24
2013-4-1,50.1,37.5,27.7,42.4,30.0,11.8,100,77,39,29.83,29.52,19,3,25,0.25
2013-4-2,31.6,27.2,23.6,22.6,15.3,12.2,83,61,49,29.97,29.82,19,5,26,0.00
2013-4-3,40.0,30.1,23.5,18.2,13.5,8.6,71,52,28,30.24,29.96,19,5,23,0.00
2013-4-4,51.7,37.3,22.0,24.4,19.2,15.4,83,51,30,30.34,29.95,13,2,21,0.00
2013-4-5,53.5,41.1,29.8,27.2,22.7,18.1,72,49,33,29.95,29.70,13,2,19,0.00
2013-4-6,44.5,32.5,24.0,17.5,11.4,7.3,58,43,23,30.30,29.95,11,2,19,0.00
2013-4-7,58.5,45.1,27.9,38.8,24.3,12.6,61,45,27,30.27,29.84,20,4,33,0.00
2013-4-8,63.0,50.2,41.5,39.5,35.0,31.8,76,58,31,30.10,29.91,11,2,16,0.00
2013-4-9,63.5,55.7,47.5,49.2,43.7,36.0,82,65,43,30.01,29.78,14,4,28,0.09
2013-4-10,54.7,48.4,44.6,48.8,45.5,40.5,95,90,76,30.02,29.82,5,0,14,0.93
2013-4-11,45.0,37.3,31.9,43.6,33.6,28.2,95,87,65,30.14,29.86,7,0,10,0.12
2013-4-12,37.7,34.9,32.6,31.5,29.6,26.8,92,81,72,30.12,29.76,24,4,41,0.45
2013-4-13,49.5,39.7,32.4,38.7,34.3,29.7,94,82,61,29.94,29.80,12,1,15,0.15
2013-4-14,44.0,38.4,30.1,34.5,30.0,24.5,95,73,49,30.24,29.92,12,2,18,0.06
2013-4-15,63.4,45.3,26.5,37.8,30.7,23.9,91,61,37,30.37,30.20,10,1,17,0.00
2013-4-16,62.2,54.9,47.5,53.0,43.3,31.0,90,66,50,30.27,29.98,22,4,34,0.21
2013-4-17,61.6,50.1,40.0,48.4,36.3,30.9,89,62,37,30.33,30.07,11,2,16,0.00
2013-4-18,63.3,52.3,39.3,49.6,34.3,26.7,77,51,37,30.33,29.99,25,5,34,0.00
2013-4-19,71.7,63.1,45.6,60.5,54.8,43.4,93,75,63,30.00,29.48,23,6,35,0.93
2013-4-20,48.2,41.7,32.2,42.8,31.6,19.4,94,70,45,30.29,29.69,17,4,23,0.32
2013-4-21,49.8,37.3,27.2,22.3,18.4,14.1,67,48,27,30.66,30.29,10,2,15,0.00
2013-4-22,57.4,43.2,29.6,27.6,21.3,16.3,64,43,26,30.71,30.51,13,2,19,0.00
2013-4-23,50.1,41.9,31.6,37.7,31.3,23.7,81,66,57,30.53,30.13,12,2,21,0.00
2013-4-24,76.4,56.1,34.1,50.2,41.0,32.2,94,62,31,30.13,29.67,13,2,23,0.00
2013-4-25,63.5,46.2,37.0,52.4,32.4,26.9,88,61,33,30.27,29.67,13,3,23,0.12
2013-4-26,59.0,44.4,30.7,36.3,30.3,26.3,84,60,33,30.43,30.26,10,1,13,0.00
2013-4-27,64.4,47.3,30.1,35.6,29.9,24.9,89,56,24,30.44,30.27,10,1,15,0.00
2013-4-28,74.3,55.9,35.7,41.3,35.4,29.4,80,50,25,30.31,30.09,15,1,16,0.00
2013-4-29,62.6,57.2,53.5,44.0,37.1,31.5,56,47,42,30.20,30.13,16,3,19,0.00
2013-4-30,73.5,59.1,46.4,45.4,40.7,30.6,83,53,35,30.28,30.19,8,1,13,0.01
2013-5-1,79.6,60.8,41.3,38.4,34.0,27.2,74,42,15,30.41,30.26,9,1,13,0.00
2013-5-2,82.7,62.4,42.9,44.2,39.5,31.0,80,47,24,30.44,30.25,22,2,30,0.00
2013-5-3,72.4,59.7,47.2,42.7,35.4,26.4,60,42,25,30.45,30.29,12,2,22,0.00
2013-5-4,78.1,60.9,41.3,46.1,38.2,30.4,90,49,20,30.33,30.16,13,1,15,0.00
2013-5-5,78.6,59.2,38.6,39.7,32.7,27.6,76,42,17,30.27,30.11,9,1,14,0.00
2013-5-6,78.7,58.6,37.9,44.4,38.9,33.9,92,53,23,30.22,30.05,7,1,10,0.00
2013-5-7,81.8,64.0,44.6,53.3,47.9,38.7,94,60,34,30.15,30.00,6,0,10,0.00
2013-5-8,74.4,61.3,49.6,58.1,53.7,47.3,94,78,51,30.12,29.97,15,1,17,0.21
2013-5-9,69.9,58.4,50.4,58.4,52.8,49.1,96,84,53,29.97,29.84,7,0,11,0.33
2013-5-10,77.1,62.5,47.2,60.1,52.5,46.1,97,73,42,29.96,29.78,13,0,16,0.00
2013-5-11,69.4,62.5,54.3,61.0,56.7,52.6,94,82,56,29.78,29.61,10,1,23,0.21
2013-5-12,59.0,51.5,41.6,52.6,41.4,26.7,95,71,37,29.84,29.62,11,1,19,0.00
2013-5-13,47.8,41.4,37.9,34.1,30.3,27.8,85,65,49,30.07,29.84,13,2,18,0.00
2013-5-14,55.8,42.4,28.8,33.9,30.7,26.5,92,66,38,30.11,30.00,8,0,12,0.00
2013-5-15,60.9,47.0,29.3,51.1,37.9,27.2,93,73,36,30.06,29.59,17,2,26,0.07
2013-5-16,76.3,60.9,41.6,49.5,41.8,33.7,94,55,26,29.83,29.64,16,2,30,0.00
2013-5-17,69.2,54.0,41.1,42.5,40.0,37.4,90,63,34,30.21,29.84,12,1,15,0.00
2013-5-18,74.6,56.4,38.6,48.4,41.2,36.0,93,62,29,30.30,30.18,7,0,11,0.00
2013-5-19,62.5,53.4,43.3,53.4,49.1,41.6,95,86,71,30.28,30.12,10,1,21,0.05
2013-5-20,75.0,62.5,55.5,64.1,57.9,52.5,94,86,66,30.12,29.92,6,0,9,0.00
2013-5-21,87.3,70.1,56.4,68.0,62.0,54.2,97,79,47,29.95,29.74,10,1,21,0.49
2013-5-22,82.6,67.1,56.6,69.2,63.3,54.8,97,88,63,29.88,29.73,11,1,21,1.44
2013-5-23,77.0,70.0,62.1,68.2,63.0,59.2,91,79,64,29.79,29.69,13,1,23,0.05
2013-5-24,66.5,51.9,41.3,62.1,49.6,39.9,96,92,83,29.96,29.61,10,1,12,0.72
2013-5-25,43.3,40.9,38.3,41.6,39.3,36.7,95,94,92,29.95,29.87,9,1,18,1.28
2013-5-26,48.7,42.4,36.5,45.5,40.6,35.2,100,94,87,30.13,29.84,6,0,11,0.52
2013-5-27,71.7,50.9,33.0,47.9,39.6,31.8,97,71,31,30.19,30.07,6,1,12,0.01
2013-5-28,74.5,57.2,38.5,55.3,44.9,36.7,95,69,30,30.22,30.07,4,0,12,0.00
2013-5-29,75.3,63.5,55.5,68.8,60.3,51.7,96,90,72,30.07,29.91,5,0,15,0.51
2013-5-30,85.4,70.9,58.0,69.9,64.1,56.8,97,81,56,30.07,29.99,5,0,11,0.00
2013-5-31,90.4,75.4,60.0,71.2,64.7,58.8,97,73,44,30.08,29.90,7,0,12,0.00
2013-6-1,89.3,77.3,62.3,72.9,65.3,60.5,95,69,47,29.94,29.79,8,0,14,0.00
2013-6-2,87.9,74.4,64.6,71.0,66.3,62.7,96,78,53,29.79,29.63,8,1,16,2.02
2013-6-3,68.6,61.2,50.5,63.8,54.4,40.3,97,80,53,29.89,29.77,9,1,11,0.00
2013-6-4,71.8,55.8,41.1,50.1,44.4,38.3,92,68,41,30.11,29.90,6,1,19,0.00
2013-6-5,72.7,58.3,43.7,52.6,45.7,39.9,95,67,33,30.19,30.08,5,0,9,0.00
2013-6-6,72.4,59.5,47.9,54.7,48.9,43.9,94,71,44,30.14,30.01,8,0,14,0.17
2013-6-7,55.1,53.3,51.8,52.0,49.9,47.3,94,88,77,30.01,29.79,11,2,20,0.76
2013-6-8,64.0,57.6,51.5,60.3,55.1,49.8,96,92,82,30.01,29.70,4,0,20,0.43
2013-6-9,76.2,63.5,54.1,60.4,56.3,52.6,95,79,51,30.17,30.01,5,0,10,0.00
2013-6-10,68.8,59.4,50.7,59.9,55.0,49.3,96,86,58,30.18,29.86,12,1,19,0.21
2013-6-11,66.8,58.6,55.5,60.4,56.0,53.2,96,91,78,29.85,29.55,12,2,26,0.98
2013-6-12,69.7,58.1,51.5,56.8,53.5,49.2,96,86,57,29.84,29.58,10,0,14,0.34
2013-6-13,57.5,52.4,46.6,56.0,50.3,45.4,100,93,80,29.83,29.67,12,0,16,0.73
2013-6-14,76.2,61.1,49.5,60.4,52.3,46.4,95,76,39,29.84,29.67,5,0,11,0.00
2013-6-15,76.9,61.7,46.5,56.7,49.8,45.1,96,69,42,29.96,29.84,6,0,15,0.00
2013-6-16,74.7,59.8,47.6,60.4,53.3,44.7,93,80,52,29.94,29.70,7,0,16,0.03
2013-6-17,80.5,64.4,55.8,64.4,59.6,54.0,96,86,52,29.88,29.75,12,0,24,0.33
2013-6-18,63.3,58.3,49.7,60.9,55.8,48.0,96,92,82,29.96,29.87,4,0,11,0.00
2013-6-19,71.0,56.8,44.4,52.9,45.9,38.0,97,72,31,30.17,29.95,6,0,11,0.01
2013-6-20,78.6,59.9,41.3,55.7,47.2,39.4,95,68,33,30.26,30.16,4,0,9,0.00
2013-6-21,82.3,65.3,51.1,60.8,53.9,49.7,96,71,36,30.24,30.18,4,0,7,0.00
2013-6-22,83.8,68.2,54.6,68.3,60.5,51.9,95,78,51,30.19,30.05,5,0,6,0.00
2013-6-23,88.6,74.8,65.6,73.4,67.1,62.7,96,78,56,30.09,29.92,6,0,17,0.19
2013-6-24,88.5,71.2,63.4,74.5,66.8,61.8,97,88,60,30.00,29.87,6,0,17,0.26
2013-6-25,87.7,70.1,60.7,73.3,65.9,59.8,97,88,56,29.96,29.74,4,0,25,0.36
2013-6-26,76.7,68.9,64.2,70.2,66.5,63.0,97,93,74,29.80,29.72,7,0,10,0.32
2013-6-27,86.2,71.4,60.7,72.2,66.1,59.8,98,85,55,29.80,29.61,4,0,11,0.01
2013-6-28,78.9,69.2,63.0,70.2,64.7,60.2,96,86,67,29.62,29.41,9,1,24,0.64
2013-6-29,82.0,69.4,63.2,68.6,64.8,62.0,97,87,56,29.66,29.45,4,0,13,0.02
2013-6-30,84.0,70.0,60.6,73.0,65.3,59.6,97,86,61,29.88,29.66,5,0,10,0.02
2013-7-1,81.2,69.2,62.8,73.1,67.0,61.6,97,93,70,30.00,29.88,3,0,13,1.18
2013-7-2,84.6,72.4,65.5,75.4,69.3,64.3,97,91,67,30.12,29.98,4,0,11,1.13
2013-7-3,84.9,75.0,67.8,73.8,70.2,66.9,97,86,66,30.17,30.08,6,0,7,0.09
2013-7-4,89.2,78.4,68.8,75.2,71.4,67.6,97,80,59,30.18,30.04,4,0,11,0.00
2013-7-5,89.6,78.2,69.1,77.6,72.0,67.5,96,83,56,30.13,29.99,5,0,9,1.80
2013-7-6,84.4,73.5,64.3,72.7,68.7,62.4,97,86,58,30.08,29.99,7,0,9,0.00
2013-7-7,89.7,73.0,61.9,76.5,68.1,60.4,96,86,59,30.03,29.89,2,0,10,0.63
2013-7-8,84.7,72.5,67.2,72.7,69.2,65.0,97,90,64,30.02,29.89,5,0,11,0.08
2013-7-9,87.4,73.6,63.9,74.3,67.8,62.8,97,83,60,30.06,29.96,12,0,13,0.00
2013-7-10,83.1,74.3,68.8,72.9,69.4,66.9,96,85,69,29.96,29.74,9,0,16,0.66
2013-7-11,82.7,72.9,61.9,70.2,66.2,56.7,97,81,53,29.97,29.72,7,0,9,0.00
2013-7-12,82.3,69.0,56.9,67.8,60.4,55.1,96,76,47,30.15,29.97,3,0,7,0.00
2013-7-13,79.5,70.5,61.1,69.5,63.3,56.2,95,79,55,30.27,30.15,8,0,11,0.00
2013-7-14,87.9,75.1,66.2,75.5,69.8,65.0,96,85,60,30.30,30.19,3,0,6,0.00
2013-7-15,90.6,76.4,66.0,75.8,69.4,64.4,97,81,53,30.22,30.10,4,0,7,0.00
2013-7-16,90.6,75.8,63.1,74.5,67.5,61.6,96,78,49,30.21,30.12,7,0,11,0.00
2013-7-17,92.4,78.3,64.8,75.6,69.5,63.5,96,77,51,30.19,29.95,6,0,10,0.00
2013-7-18,90.6,79.8,70.0,76.7,72.4,68.4,97,79,56,30.01,29.90,7,0,12,0.00
2013-7-19,92.8,80.0,67.2,77.8,71.2,65.3,96,77,51,29.91,29.68,11,0,27,0.42
2013-7-20,84.0,70.8,62.6,72.1,66.8,60.8,97,88,63,29.83,29.67,9,0,16,0.01
2013-7-21,82.3,68.9,58.6,67.8,62.5,57.4,96,82,55,29.98,29.83,3,0,7,0.01
2013-7-22,86.1,69.4,60.2,72.7,65.1,59.0,96,87,52,30.00,29.80,4,0,11,0.30
2013-7-23,80.2,69.9,65.4,70.4,67.0,64.1,97,91,69,29.80,29.54,4,0,11,1.53
2013-7-24,77.1,65.7,51.9,65.7,60.4,48.1,97,84,58,30.01,29.58,7,0,14,0.00
2013-7-25,73.0,59.8,45.5,61.9,52.6,43.8,96,78,59,30.09,30.00,6,0,9,0.00
2013-7-26,75.5,62.3,55.0,62.8,57.2,52.7,95,84,57,30.06,29.98,3,0,9,0.00
2013-7-27,83.2,66.0,50.7,66.4,58.4,49.4,97,79,48,30.05,29.94,4,0,9,0.00
2013-7-28,77.8,67.2,60.1,68.6,63.1,58.6,95,87,65,29.97,29.90,4,0,15,0.08
2013-7-29,81.5,70.5,60.0,66.1,62.2,55.3,95,77,51,30.07,29.92,7,0,15,0.00
2013-7-30,77.8,65.0,52.4,63.2,57.3,51.0,96,78,53,30.14,30.05,7,0,7,0.00
2013-7-31,81.1,65.6,53.6,64.7,58.0,52.2,96,79,49,30.15,30.01,7,0,7,0.00
2013-8-1,75.6,63.1,54.6,65.3,59.2,53.1,96,88,66,30.02,29.80,13,1,21,0.14
2013-8-2,77.7,68.1,58.0,63.9,60.7,55.8,96,79,49,29.85,29.78,7,0,10,0.00
2013-8-3,77.6,64.8,55.1,63.8,57.4,53.4,96,79,48,29.85,29.78,7,0,15,0.05
2013-8-4,74.6,60.5,51.4,61.4,54.8,49.7,96,82,57,29.93,29.81,5,0,13,0.27
2013-8-5,73.6,59.7,48.5,56.3,50.1,46.5,96,74,41,30.05,29.93,5,0,13,0.00
2013-8-6,78.1,61.0,45.9,61.7,52.5,44.2,96,77,48,30.12,30.05,3,0,5,0.00
2013-8-7,78.7,68.0,57.3,61.9,58.4,54.6,91,73,50,30.13,30.00,10,1,20,0.00
2013-8-8,83.4,74.1,68.6,72.1,66.7,62.1,86,78,60,30.00,29.93,11,1,15,0.00
2013-8-9,77.9,73.0,70.1,72.1,69.2,66.8,94,88,80,29.93,29.74,9,0,18,0.10
2013-8-10,76.8,66.9,52.8,67.6,57.3,49.9,95,74,41,30.04,29.80,9,1,14,0.00
2013-8-11,75.5,60.9,47.6,60.1,52.9,46.2,96,78,49,30.10,29.99,3,0,7,0.00
2013-8-12,79.7,64.6,52.4,63.3,56.9,51.0,96,79,50,30.03,29.88,9,0,12,0.00
2013-8-13,70.7,63.5,58.6,67.0,61.6,57.1,96,94,86,29.89,29.65,3,0,10,1.42
2013-8-14,68.0,57.6,50.8,59.5,53.2,49.4,96,86,66,29.98,29.73,7,0,14,0.01
2013-8-15,70.6,56.9,45.1,57.4,51.0,43.7,97,83,56,30.11,29.98,7,0,12,0.01
2013-8-16,76.1,60.5,48.6,61.1,53.4,47.3,97,80,50,30.20,30.10,4,0,9,0.00
2013-8-17,78.3,62.4,48.2,63.2,55.3,46.8,97,80,47,30.29,30.20,4,0,6,0.00
2013-8-18,75.4,62.4,53.5,65.2,57.5,52.1,96,85,65,30.27,30.09,0,0,2,0.00
2013-8-19,78.7,64.6,54.3,65.2,58.9,52.8,96,83,59,30.09,29.96,4,0,9,0.00
2013-8-20,81.5,67.0,54.6,67.5,60.3,53.4,97,81,55,30.10,30.01,6,0,9,0.00
2013-8-21,83.0,68.8,57.0,68.1,61.6,55.8,97,80,50,30.16,30.00,4,0,10,0.00
2013-8-22,83.9,71.0,59.0,69.5,63.8,57.8,96,81,51,30.02,29.80,6,0,11,0.39
2013-8-23,73.8,64.2,52.5,64.0,57.1,47.1,97,80,42,30.16,29.85,7,0,11,0.00
2013-8-24,77.0,59.4,45.6,60.1,51.3,44.2,96,77,47,30.34,30.15,4,0,6,0.00
2013-8-25,77.6,62.5,46.7,62.8,54.5,45.3,96,78,49,30.38,30.14,5,0,10,0.01
2013-8-26,77.2,66.4,60.5,67.6,62.9,58.7,96,89,70,30.14,29.86,3,0,11,0.40
2013-8-27,80.9,69.7,63.5,71.1,66.5,62.4,97,90,69,29.90,29.82,1,0,6,0.03
2013-8-28,84.8,70.8,61.3,72.4,66.1,60.4,97,87,62,29.92,29.80,3,0,10,0.02
2013-8-29,78.7,67.7,59.0,67.5,62.6,57.5,96,85,64,30.03,29.90,9,0,12,0.00
2013-8-30,81.4,70.2,63.0,69.8,65.0,61.5,96,85,61,29.98,29.78,3,0,6,0.00
2013-8-31,78.0,69.7,64.9,72.7,67.8,63.1,97,94,81,29.81,29.72,4,0,5,0.57
2013-9-1,81.3,71.7,66.2,73.3,68.2,64.7,97,89,73,29.84,29.77,3,0,10,0.01
2013-9-2,81.2,70.5,62.0,73.3,67.4,60.6,97,91,70,29.79,29.64,11,0,21,1.49
2013-9-3,71.1,64.0,59.8,64.2,60.0,56.2,97,88,66,29.83,29.71,5,0,12,0.00
2013-9-4,73.6,63.9,55.8,60.9,57.0,54.3,96,80,57,29.92,29.82,9,0,12,0.00
2013-9-5,67.1,58.2,44.3,58.6,50.3,40.5,96,77,46,30.17,29.85,9,0,13,0.03
2013-9-6,66.5,50.3,37.5,49.8,42.2,35.9,96,77,45,30.28,30.11,4,0,10,0.00
2013-9-7,72.6,55.7,44.7,58.3,50.9,43.3,96,86,51,30.11,29.85,2,0,6,0.04
2013-9-8,65.5,55.9,42.8,56.8,50.3,40.0,100,83,55,30.13,29.79,9,0,14,0.04
2013-9-9,66.5,52.0,36.9,56.3,45.3,35.6,100,80,48,30.24,30.07,5,0,7,0.00
2013-9-10,78.4,65.7,54.5,71.3,62.4,51.9,97,90,76,30.09,29.96,5,0,9,0.33
2013-9-11,88.6,76.5,66.4,78.1,71.4,65.5,98,86,63,30.06,29.89,4,0,11,0.01
2013-9-12,81.9,69.4,64.5,74.2,67.0,63.6,97,92,72,29.89,29.62,4,0,10,0.78
2013-9-13,65.0,59.9,51.9,64.1,58.3,50.5,97,95,85,29.83,29.60,6,0,12,0.19
2013-9-14,59.3,52.7,47.2,53.6,50.1,45.5,96,91,74,30.09,29.83,3,0,9,0.06
2013-9-15,64.2,52.5,40.5,56.1,48.3,39.4,97,87,63,30.18,30.03,4,0,6,0.00
2013-9-16,59.8,51.3,38.9,54.8,48.1,36.7,97,89,64,30.30,30.01,5,0,12,0.10
2013-9-17,62.0,46.1,32.8,49.6,40.5,31.5,96,83,58,30.47,30.30,5,0,9,0.00
2013-9-18,68.4,49.2,36.6,54.8,43.5,35.4,97,84,51,30.35,30.15,3,0,6,0.00
2013-9-19,72.1,55.3,40.8,60.5,49.3,39.7,97,83,52,30.18,30.04,4,0,7,0.01
2013-9-20,78.1,60.8,44.9,64.7,53.5,43.8,97,80,48,30.09,29.92,6,0,11,0.00
2013-9-21,72.0,65.2,56.3,61.2,56.5,47.3,93,75,46,29.94,29.59,13,3,26,0.39
2013-9-22,63.6,55.6,47.5,61.2,50.4,42.0,96,83,63,29.89,29.54,19,1,26,0.54
2013-9-23,57.6,47.5,40.2,45.5,41.2,37.7,92,80,60,30.06,29.89,6,0,17,0.00
2013-9-24,63.5,47.8,38.9,51.7,42.3,37.0,98,83,58,30.06,29.88,7,0,11,0.00
2013-9-25,67.7,51.1,37.6,55.8,45.8,36.2,96,84,58,29.97,29.88,4,0,10,0.01
2013-9-26,63.8,51.3,41.6,51.3,46.6,40.2,96,85,60,30.14,29.97,3,0,6,0.00
2013-9-27,58.5,48.4,39.9,52.5,46.1,38.7,100,92,77,30.30,30.13,1,0,2,0.00
2013-9-28,69.6,53.3,39.9,58.3,48.6,38.8,97,86,60,30.37,30.23,5,0,9,0.01
2013-9-29,71.0,56.4,43.5,59.9,50.9,42.4,97,84,57,30.24,30.04,3,0,10,0.01
2013-9-30,69.2,55.1,42.8,58.1,49.6,41.4,97,84,56,30.10,29.96,6,0,7,0.00
2013-10-1,72.0,56.6,42.7,62.2,51.8,41.6,97,85,61,30.02,29.88,3,0,9,0.00
2013-10-2,72.4,60.1,48.3,62.8,55.2,47.2,97,85,67,29.99,29.86,9,1,15,0.01
2013-10-3,69.7,55.8,45.4,54.9,49.3,44.0,99,81,48,30.11,29.99,4,0,9,0.00
2013-10-4,59.9,54.1,48.8,58.2,52.4,45.3,96,94,87,30.08,30.02,3,0,3,0.77
2013-10-5,59.9,56.7,55.1,58.0,55.5,53.9,97,96,91,30.10,30.04,0,0,3,0.02
2013-10-6,59.2,57.2,55.1,55.5,53.7,51.5,97,88,80,30.10,30.01,12,2,17,0.54
2013-10-7,72.8,62.9,52.1,65.1,58.1,48.9,95,85,72,30.01,29.63,16,3,34,0.86
2013-10-8,62.4,50.6,39.7,49.2,42.2,37.5,94,75,47,30.38,29.92,9,1,15,0.00
2013-10-9,65.2,47.1,33.0,47.6,38.6,31.7,96,76,39,30.48,30.34,7,0,11,0.00
2013-10-10,63.1,49.1,35.5,50.9,42.1,33.6,95,78,51,30.34,30.16,3,0,6,0.00
2013-10-11,71.9,55.4,45.1,50.0,42.2,33.2,87,65,27,30.16,30.07,4,0,7,0.00
2013-10-12,70.0,54.4,40.0,53.8,47.0,38.1,94,77,54,30.33,30.14,15,1,16,0.00
2013-10-13,67.9,55.7,46.3,50.4,46.8,44.1,93,74,50,30.40,30.28,9,0,11,0.00
2013-10-14,65.5,53.3,42.0,53.7,48.1,40.6,96,84,61,30.34,30.22,5,0,7,0.00
2013-10-15,64.8,58.3,54.3,56.3,53.7,51.2,94,85,72,30.24,30.09,4,0,7,0.00
2013-10-16,64.4,57.1,47.6,53.5,50.2,45.9,98,79,61,30.09,29.82,11,1,18,0.00
2013-10-17,65.7,58.6,52.4,55.5,50.7,46.0,94,77,50,29.86,29.59,6,1,14,0.16
2013-10-18,61.1,53.9,46.7,58.7,45.8,35.6,95,76,46,29.92,29.53,16,2,18,0.28
2013-10-19,63.5,50.1,37.8,46.9,40.9,35.6,95,73,47,29.94,29.66,15,1,20,0.05
2013-10-20,54.8,47.3,38.3,47.1,38.9,35.2,90,73,53,30.02,29.65,11,2,20,0.01
2013-10-21,64.2,50.6,37.4,43.7,38.7,35.3,93,67,42,30.10,29.89,7,1,22,0.00
2013-10-22,55.1,48.7,34.4,47.7,41.2,32.1,92,76,55,29.88,29.72,12,1,24,0.15
2013-10-23,49.5,39.4,30.7,37.1,33.2,29.1,94,80,53,29.80,29.61,7,0,9,0.00
2013-10-24,45.4,39.2,30.5,34.1,31.5,27.9,93,74,55,29.90,29.68,15,2,18,0.00
2013-10-25,44.8,39.0,34.4,33.4,30.7,27.1,89,73,51,30.15,29.91,8,1,16,0.00
2013-10-26,48.4,43.2,38.5,34.5,30.5,26.6,83,62,45,30.13,29.81,12,2,24,0.00
2013-10-27,47.0,42.8,35.5,35.4,32.4,29.4,84,67,52,30.05,29.77,14,2,18,0.00
2013-10-28,52.3,40.7,27.9,36.7,30.6,21.7,86,69,46,30.35,30.04,15,1,21,0.00
2013-10-29,42.5,31.0,21.5,26.6,21.5,18.8,91,70,43,30.48,30.35,6,0,9,0.00
2013-10-30,46.3,35.5,29.2,38.8,30.9,21.9,94,83,72,30.35,30.20,4,0,6,0.05
2013-10-31,60.2,47.0,29.9,57.1,44.1,28.6,96,90,75,30.24,29.64,19,2,28,0.72
2013-11-1,65.9,61.0,51.0,60.4,52.7,41.7,90,75,52,29.66,29.35,17,4,37,1.22
2013-11-2,58.9,47.1,38.6,45.4,40.8,33.5,95,80,55,29.80,29.60,5,0,12,0.00
2013-11-3,39.5,33.6,25.6,33.9,21.4,10.8,84,62,41,30.47,29.81,10,1,15,0.00
2013-11-4,39.1,28.3,19.3,24.1,18.7,16.3,89,69,43,30.68,30.48,7,0,11,0.00
2013-11-5,48.7,37.8,25.7,35.2,27.7,17.0,89,68,50,30.68,30.45,11,1,14,0.00
2013-11-6,58.4,49.1,38.6,47.6,40.8,34.1,87,74,57,30.45,29.92,11,2,21,0.00
2013-11-7,57.8,48.1,34.3,51.5,41.5,23.1,94,78,54,29.92,29.73,13,3,20,0.61
2013-11-8,41.8,34.3,27.8,33.0,25.7,21.5,91,71,50,30.13,29.86,17,2,26,0.00
2013-11-9,41.4,34.9,26.8,31.9,25.5,21.0,80,69,56,30.23,29.92,7,1,16,0.00
2013-11-10,45.6,40.9,36.3,39.0,34.3,28.5,88,77,61,29.93,29.74,17,3,27,0.08
2013-11-11,44.5,39.7,34.4,33.4,28.6,25.5,74,64,52,30.13,29.88,15,2,20,0.00
2013-11-12,41.7,28.7,23.3,34.4,20.1,15.0,92,70,57,30.26,29.90,12,2,24,0.03
2013-11-13,32.6,25.2,17.0,20.3,14.2,10.6,80,63,42,30.36,30.15,10,1,14,0.00
2013-11-14,45.0,34.8,28.9,26.5,21.3,15.7,78,59,44,30.15,30.07,16,1,19,0.00
2013-11-15,54.2,38.7,28.8,28.5,22.4,19.7,75,55,27,30.19,30.09,6,0,9,0.00
2013-11-16,56.5,42.6,33.8,34.3,30.0,24.7,84,62,40,30.30,30.17,4,0,7,0.00
2013-11-17,60.1,50.5,33.0,53.5,45.3,28.8,91,83,78,30.24,29.67,23,5,32,0.13
2013-11-18,62.1,53.2,38.8,56.9,42.7,28.7,92,68,52,29.71,29.43,25,5,38,0.44
2013-11-19,38.6,33.1,27.0,30.0,21.8,15.7,80,63,52,30.36,29.72,15,3,21,0.00
2013-11-20,35.1,26.3,20.3,20.3,17.1,14.5,82,69,50,30.64,30.36,5,0,10,0.00
2013-11-21,44.2,30.4,16.1,31.8,20.7,13.1,89,70,32,30.65,30.35,6,0,11,0.00
2013-11-22,45.6,39.7,34.8,43.2,37.7,31.1,95,93,85,30.35,29.85,16,1,17,0.23
2013-11-23,44.1,32.6,23.2,40.0,22.2,8.9,86,66,51,30.00,29.80,15,3,26,0.00
2013-11-24,23.1,17.2,12.2,15.6,4.4,0.1,87,57,45,30.29,29.87,15,3,26,0.00
2013-11-25,29.6,18.9,4.8,16.9,7.9,0.5,83,63,44,30.44,30.20,7,0,12,0.00
2013-11-26,41.2,31.6,26.0,39.4,26.6,12.3,94,82,47,30.29,29.92,14,1,18,0.50
2013-11-27,52.6,39.3,30.1,49.2,37.0,28.8,95,92,82,29.92,29.36,18,3,33,0.89
2013-11-28,30.0,22.1,13.9,28.4,13.5,6.9,94,70,45,30.45,29.56,14,3,19,0.00
2013-11-29,26.2,17.9,9.4,16.4,11.7,6.5,92,78,51,30.76,30.45,5,0,10,0.00
2013-11-30,31.2,18.8,4.2,23.5,8.5,0.9,98,67,43,30.81,30.37,16,2,22,0.00
2013-12-1,41.5,34.4,30.1,31.2,28.7,23.6,88,80,63,30.37,30.01,17,1,20,0.02
2013-12-2,38.0,33.9,30.6,32.7,30.3,27.6,93,87,79,30.01,29.89,1,0,4,0.01
2013-12-3,40.1,33.3,27.5,34.9,30.4,26.0,95,89,81,29.99,29.90,3,0,4,0.00
2013-12-4,40.2,30.9,24.6,31.0,26.4,22.8,94,84,58,30.17,29.99,3,0,6,0.00
2013-12-5,59.5,49.5,29.2,53.3,44.5,26.8,94,83,77,30.14,29.83,20,3,29,0.00
2013-12-6,57.1,39.6,30.0,52.5,36.6,27.8,95,89,82,30.16,29.84,11,1,17,0.38
2013-12-7,34.4,29.6,23.0,28.3,22.0,13.5,94,75,56,30.47,30.12,10,1,16,0.04
2013-12-8,27.4,24.9,20.9,18.1,14.4,12.1,76,64,54,30.59,30.43,5,0,7,0.00
2013-12-9,42.0,32.4,23.8,35.9,26.1,14.5,91,78,61,30.43,29.88,11,2,23,0.08
2013-12-10,34.1,28.2,20.6,29.1,20.1,11.1,88,71,57,29.99,29.82,18,2,22,0.00
2013-12-11,26.8,23.1,19.7,16.3,13.7,8.1,80,67,52,30.18,29.99,15,3,19,0.00
2013-12-12,19.8,16.5,11.5,14.0,4.7,-1.0,78,59,43,30.31,30.02,9,1,17,0.00
2013-12-13,21.7,16.7,4.9,15.3,9.2,-1.0,87,72,58,30.43,29.96,12,2,24,0.00
2013-12-14,17.1,9.4,2.8,14.4,3.2,-2.0,89,75,61,30.60,30.04,21,2,33,0.00
2013-12-15,25.4,22.9,17.0,23.1,19.5,14.3,92,87,80,30.04,29.53,20,3,39,0.00
2013-12-16,23.0,16.9,6.9,18.8,7.9,1.5,84,68,53,30.23,29.73,17,3,25,0.00
2013-12-17,16.9,8.1,-3.0,12.9,4.6,-7.0,92,85,78,30.26,30.00,6,0,10,0.00
2013-12-18,27.8,20.4,12.2,20.7,16.2,9.5,99,84,71,30.07,29.97,5,0,16,0.00
2013-12-19,38.3,33.2,26.7,28.6,22.8,17.6,84,66,51,30.09,29.95,12,1,18,0.17
2013-12-20,53.6,40.3,33.9,41.8,34.0,27.6,95,79,52,30.07,29.87,10,1,19,0.16
2013-12-21,59.0,47.4,37.5,51.7,44.5,36.1,96,90,70,29.90,29.81,15,1,23,0.51
2013-12-22,67.0,48.0,32.5,59.2,43.6,31.2,97,86,63,29.91,29.62,15,2,30,0.09
2013-12-23,49.8,40.8,31.4,47.3,38.5,24.8,96,92,76,30.15,29.88,11,1,18,0.26
2013-12-24,31.4,24.5,15.7,25.1,15.5,5.3,80,69,56,30.29,30.11,14,2,18,0.00
2013-12-25,21.1,12.7,5.1,8.3,3.2,-1.0,77,65,50,30.56,30.29,15,1,18,0.00
2013-12-26,28.8,25.8,20.6,25.7,19.5,5.5,89,78,50,30.40,30.09,16,3,23,0.00
2013-12-27,29.9,26.8,22.8,23.1,19.5,15.5,82,74,65,30.28,30.19,12,2,17,0.01
2013-12-28,41.3,32.8,24.2,30.6,25.8,20.1,92,76,57,30.21,30.03,10,1,15,0.00
2013-12-29,40.0,32.7,28.4,35.1,30.0,26.2,100,90,77,30.03,29.57,4,0,7,0.50
2013-12-30,35.3,24.3,9.0,33.1,17.7,4.3,95,76,59,30.21,29.61,15,3,20,0.08
2013-12-31,20.1,13.2,5.7,15.0,7.3,2.1,86,77,62,30.19,30.02,30,2,30,0.00
2014-1-1,19.3,15.0,10.5,11.1,7.9,3.9,83,73,63,30.38,30.19,10,1,19,0.00
2014-1-2,13.7,3.2,-5.0,9.5,-0.6,-9.0,92,83,81,30.35,29.92,9,1,11,0.00